[[{"header":{"parameterUnit":"m.s-1","parameterCategory":2,"la1":30.2991,"la2":30.254,"lo1":-89.0895,"lo2":-89.0444,"dy":0.0017,"dx":0.0017,"nx":28,"ny":28,"refTime":"2024-03-29T21:00:00:Z","depth":"0","parameterNumber":2,"parameterNumberName":"U-component_of_CURRENTS"},"data":[0,0,0,0,0,0,0,0,0,0,0,0,0,0,0,0,0,0,0,0,0,0,0,0,0,0,0,0,0,0,0,0,0,0,0,0,0,0,0,0,0,0,0,0,0,0,0,0,0,0,0,0,0,0,0,0,0,0,0.2643,0.2643,0,0.2565,0.2564,0.2563,0.2509,0.2508,0.2508,0.2508,0.2491,0.2491,0.2491,0,0,0,0,0,0,0,0,0,0,0,0,0,0.2721,0.272,0.2643,0.2643,0.2642,0.2566,0.2564,0.2563,0.2509,0.2508,0.2508,0.2508,0.2491,0.2491,0.2491,0,0,0,0,0,0,0,0,0,0,0,0,0,0.2667,0.2719,0.2644,0.2607,0.2604,0.2566,0.2564,0.2563,0.2509,0.2508,0.2508,0.2508,0.2491,0.2491,0.2491,0.2494,0,0,0.2489,0.2489,0,0,0,0,0,0,0,0,0.267,0.2664,0.2613,0.261,0.2606,0.2549,0.2585,0.2544,0.2509,0.2542,0.2508,0.2508,0.2518,0.2515,0.2497,0.2493,0.2493,0.2489,0.2489,0.2489,0.2489,0,0,0,0,0,0,0,0.2674,0.2667,0.261,0.2613,0.2608,0.2587,0.2579,0.2577,0.2532,0.2539,0.2536,0.2531,0.2516,0.2497,0.2496,0.2492,0.2489,0.2489,0.2489,0.2489,0.2534,0.2536,0,0,0,0,0,0,0.269,0.2671,0.2612,0.2608,0.2641,0.2586,0.2577,0.2565,0.253,0.2525,0.2531,0.2529,0.2498,0.2497,0.2496,0.254,0.2489,0.2489,0.2488,0.2533,0.2535,0.2536,0,0,0,0,0,0,0.2692,0.2685,0.2616,0.264,0.263,0.2586,0.2572,0.2564,0.2549,0.2524,0.2519,0.2526,0.2498,0.2496,0.2505,0.2537,0.2488,0.2488,0.2531,0.2533,0.2535,0.2602,0,0,0,0,0,0,0.2694,0.2686,0.2683,0.2641,0.2629,0.2603,0.2573,0.2563,0.2548,0.2544,0.2519,0.2516,0.2497,0.2505,0.2504,0.2536,0.2488,0.2529,0.2532,0.2535,0.2598,0.2606,0.2613,0,0,0,0,0,0.2697,0.2689,0.2683,0.2676,0.2626,0.2604,0.2596,0.2562,0.2548,0.2547,0.2533,0.2517,0.2522,0.2506,0.2504,0.2537,0.2528,0.2531,0.2535,0.2594,0.2604,0.2613,0,0,0,0,0,0,0.2704,0.2682,0.2674,0.2655,0.264,0.2596,0.2587,0.257,0.2554,0.2553,0.2529,0.2526,0.2549,0.2534,0.2517,0.2559,0.2526,0.2529,0.2572,0.2581,0.2588,0.2583,0.2487,0,0,0,0,0,0.271,0.2704,0.2682,0.2665,0.2663,0.263,0.2617,0.2599,0.2579,0.257,0.2553,0.2547,0.256,0.2562,0.2561,0.2581,0.2592,0.2603,0.2611,0.2617,0.2613,0.2673,0.2686,0.2547,0.2547,0.2547,0,0,0.2701,0.2693,0.2684,0.2668,0.265,0.2645,0.262,0.2607,0.2606,0.2575,0.2569,0.2571,0.2571,0.2593,0.2603,0.2585,0.2666,0.2621,0.2627,0.2619,0.2678,0.2692,0.2704,0.2549,0.2549,0.2548,0,0,0.2683,0.2683,0.2674,0.2675,0.2666,0.2656,0.266,0.2631,0.2627,0.2629,0.2617,0.2639,0.2634,0.2646,0.2654,0.2705,0.2705,0.2709,0.2742,0.2801,0.2813,0.2824,0.2868,0.2882,0.2712,0.2713,0.2713,0,0.2673,0.2661,0.2667,0.2668,0.2668,0.2668,0.2662,0.2665,0.2641,0.2651,0.2639,0.2663,0.2663,0.271,0.2725,0.2723,0.2749,0.2708,0.2812,0.2823,0.2833,0.2875,0.289,0.2716,0.2716,0.2715,0.2715,0,0.2651,0.265,0.2649,0.2656,0.2663,0.2661,0.2677,0.2689,0.2693,0.2692,0.2733,0.2738,0.2753,0.277,0.276,0.2833,0.2828,0.2817,0.2789,0.2851,0.2892,0.2906,0.2721,0.272,0.2719,0.2718,0,0,0.2591,0.2627,0.2623,0.263,0.2661,0.2656,0.2695,0.2719,0.2743,0.2755,0.2789,0.2823,0.2829,0.2838,0.2845,0.2894,0.2991,0.2884,0.2886,0.2929,0.312,0.3034,0.3041,0.3004,0.3007,0.3009,0.3126,0,0.2564,0.2571,0.2599,0.2603,0.2607,0.2652,0.2683,0.2718,0.2754,0.2793,0.2839,0.287,0.2858,0.2877,0.2928,0.2979,0.3029,0.2959,0.3053,0.3055,0.2972,0.3055,0.2864,0.2945,0.3139,0.3141,0.3143,0,0.2516,0.2537,0.2543,0.2586,0.2592,0.2605,0.267,0.2701,0.2785,0.2814,0.2874,0.2907,0.2991,0.2965,0.3092,0.3051,0.3085,0.3119,0.3124,0.3026,0.2995,0.2913,0.2963,0.2869,0.3164,0.3163,0.3161,0,0.2455,0.2486,0.2494,0.2508,0.2565,0.2585,0.2622,0.2701,0.2744,0.2837,0.2888,0.2973,0.3034,0.3103,0.3172,0.3146,0.3305,0.3279,0.3233,0.3227,0.3071,0.3046,0.3035,0.336,0.3359,0.3359,0.3359,0,0.2406,0.2404,0.2467,0.2469,0.2488,0.2546,0.2585,0.264,0.2737,0.2798,0.2892,0.2962,0.3075,0.3174,0.3213,0.3273,0.3344,0.3253,0.3259,0.3088,0.3065,0.2977,0.2949,0.3363,0.3363,0.3362,0.3361,0,0.2322,0.2364,0.2372,0.2436,0.2454,0.2468,0.2555,0.2597,0.2699,0.2794,0.2832,0.2986,0.3117,0.3217,0.3344,0.3323,0.3279,0.3379,0.3162,0.3139,0.2969,0.2951,0.2864,0.2792,0.3349,0.3348,0.3347,0,0.2281,0.228,0.2334,0.2349,0.2374,0.2416,0.2454,0.2555,0.2618,0.28,0.2849,0.3013,0.3102,0.326,0.3256,0.3314,0.3246,0.3164,0.3065,0.2943,0.2931,0.2836,0.2776,0.29,0.2895,0.2891,0.2888,0,0.2213,0.2232,0.2251,0.2288,0.2317,0.2352,0.2424,0.2463,0.2603,0.2699,0.2835,0.2923,0.3053,0.3025,0.309,0.3096,0.2975,0.3085,0.3022,0.2628,0.2462,0.2399,0.2843,0.2854,0.2857,0.286,0.2862,0.2863,0.2165,0.2164,0.2203,0.2224,0.2261,0.2294,0.2307,0.2398,0.2481,0.2606,0.2733,0.2802,0.2828,0.2877,0.2867,0.2688,0.2742,0.258,0.2591,0.2523,0.237,0.2729,0.2701,0.2703,0.2705,0.2707,0.2709,0,0.2112,0.2126,0.2147,0.2175,0.2188,0.223,0.2293,0.2301,0.2366,0.2468,0.2559,0.254,0.248,0.2476,0.2316,0.2202,0.211,0.2148,0.1969,0.1956,0.2325,0.2218,0.2004,0.2004,0.2004,0.2005,0.2005,0.2005,0.2092,0.2089,0.21,0.2101,0.212,0.2121,0.2138,0.2154,0.2203,0.2197,0.2167,0.2201,0.2199,0.2082,0.1903,0.1855,0.1736,0.1608,0.1694,0.194,0.1981,0.2019,0.1911,0.1636,0.1636,0.119,0.1187,0.1184]},{"header":{"parameterUnit":"m.s-1","parameterCategory":2,"la1":30.2991,"la2":30.254,"lo1":-89.0895,"lo2":-89.0444,"dy":0.0017,"dx":0.0017,"nx":28,"ny":28,"refTime":"2024-03-29T21:00:00:Z","depth":"0","parameterNumber":3,"parameterNumberName":"V-component_of_CURRENTS"},"data":[0,0,0,0,0,0,0,0,0,0,0,0,0,0,0,0,0,0,0,0,0,0,0,0,0,0,0,0,0,0,0,0,0,0,0,0,0,0,0,0,0,0,0,0,0,0,0,0,0,0,0,0,0,0,0,0,0,0,0.0267,0.0266,0,0.0245,0.0245,0.0245,0.0229,0.0228,0.0228,0.0228,0.021,0.021,0.021,0,0,0,0,0,0,0,0,0,0,0,0,0,0.0277,0.0277,0.0267,0.0266,0.0266,0.0245,0.0245,0.0245,0.0229,0.0228,0.0228,0.0228,0.021,0.021,0.021,0,0,0,0,0,0,0,0,0,0,0,0,0,0.0266,0.0277,0.0267,0.0255,0.0253,0.0245,0.0245,0.0245,0.0229,0.0228,0.0228,0.0228,0.0211,0.021,0.021,0.0215,0,0,0.0209,0.0209,0,0,0,0,0,0,0,0,0.0267,0.0266,0.0257,0.0255,0.0254,0.0238,0.0242,0.0235,0.0229,0.0239,0.0228,0.0227,0.022,0.0219,0.0217,0.0214,0.0213,0.0209,0.0208,0.0208,0.0208,0,0,0,0,0,0,0,0.0268,0.0267,0.0259,0.0256,0.0255,0.0244,0.0243,0.0241,0.0232,0.0238,0.0237,0.0233,0.0219,0.0217,0.0216,0.0213,0.0209,0.0208,0.0208,0.0208,0.0218,0.0218,0,0,0,0,0,0,0.027,0.0268,0.026,0.0258,0.0259,0.0245,0.0243,0.0244,0.0232,0.023,0.0233,0.0232,0.0218,0.0217,0.0215,0.0237,0.0208,0.0208,0.0208,0.0217,0.0218,0.0219,0,0,0,0,0,0,0.027,0.027,0.0261,0.0261,0.0259,0.0245,0.0247,0.0244,0.0241,0.0228,0.0226,0.0232,0.0218,0.0216,0.0221,0.0235,0.0208,0.0207,0.0217,0.0218,0.0218,0.0269,0,0,0,0,0,0,0.0271,0.027,0.0272,0.0262,0.0259,0.0261,0.0247,0.0244,0.0239,0.0237,0.0227,0.0225,0.0217,0.0221,0.022,0.0234,0.0207,0.0216,0.0217,0.0218,0.0267,0.0272,0.0276,0,0,0,0,0,0.0271,0.0281,0.0273,0.0271,0.0263,0.0262,0.026,0.0249,0.0239,0.0244,0.0238,0.0225,0.0226,0.0222,0.022,0.0235,0.0216,0.0217,0.0218,0.0265,0.0271,0.0276,0,0,0,0,0,0,0.0284,0.0279,0.0271,0.0277,0.027,0.0259,0.026,0.0251,0.0249,0.0247,0.0234,0.0233,0.0241,0.023,0.0225,0.0239,0.0218,0.0219,0.0254,0.0259,0.0264,0.0275,0.0207,0,0,0,0,0,0.0288,0.0294,0.0284,0.0288,0.0286,0.0272,0.0269,0.0262,0.0258,0.0256,0.025,0.0244,0.0245,0.0246,0.0242,0.0252,0.0247,0.0259,0.0263,0.0267,0.0275,0.0283,0.029,0.0222,0.0222,0.0222,0,0,0.0291,0.0291,0.0292,0.0291,0.0284,0.0293,0.027,0.027,0.0281,0.0255,0.027,0.026,0.025,0.0263,0.0265,0.0255,0.0283,0.0268,0.0272,0.0278,0.0285,0.0292,0.0298,0.0223,0.0223,0.0223,0,0,0.0307,0.0303,0.0315,0.0315,0.031,0.0306,0.0308,0.03,0.03,0.0309,0.0296,0.0297,0.0294,0.0296,0.0295,0.032,0.0305,0.0314,0.0349,0.0357,0.0363,0.0368,0.0372,0.0377,0.0317,0.0318,0.0318,0,0.0311,0.0328,0.0317,0.0331,0.0339,0.0316,0.0334,0.0333,0.0329,0.034,0.0321,0.033,0.0313,0.0339,0.0342,0.0332,0.0331,0.0331,0.0364,0.0369,0.0373,0.0376,0.0381,0.032,0.032,0.032,0.0319,0,0.0338,0.0352,0.036,0.0374,0.0381,0.0392,0.039,0.0399,0.0393,0.0392,0.0411,0.0392,0.0401,0.039,0.0371,0.0398,0.0385,0.0369,0.0354,0.0383,0.0384,0.0388,0.0324,0.0323,0.0322,0.0321,0,0,0.0351,0.0375,0.0379,0.04,0.0407,0.0421,0.0442,0.0463,0.0491,0.0476,0.0515,0.0495,0.0483,0.048,0.0459,0.0455,0.0474,0.0425,0.0424,0.0434,0.0493,0.0461,0.0462,0.0465,0.0466,0.0466,0.0482,0,0.0377,0.0419,0.0424,0.0468,0.0491,0.0491,0.0521,0.0536,0.0542,0.0575,0.0555,0.0579,0.0519,0.053,0.0516,0.0493,0.0488,0.0472,0.0458,0.0457,0.043,0.0467,0.0456,0.0467,0.0486,0.0486,0.0487,0,0.0408,0.0435,0.0483,0.0532,0.0543,0.0566,0.062,0.0645,0.0675,0.0682,0.0692,0.0679,0.0681,0.0624,0.0596,0.059,0.0544,0.0513,0.0513,0.047,0.0433,0.0439,0.0474,0.0398,0.0493,0.0492,0.0492,0,0.0437,0.0481,0.0526,0.054,0.0586,0.0615,0.0643,0.0678,0.0724,0.0759,0.08,0.0782,0.0804,0.074,0.0667,0.0638,0.0636,0.0591,0.0519,0.0516,0.0497,0.0491,0.0462,0.057,0.057,0.057,0.057,0,0.0472,0.051,0.0544,0.0572,0.064,0.0656,0.0733,0.0757,0.0815,0.0896,0.0862,0.0927,0.0834,0.0819,0.0719,0.0643,0.0679,0.0537,0.0523,0.0513,0.0509,0.0432,0.0376,0.057,0.057,0.057,0.057,0,0.0502,0.0522,0.0581,0.0633,0.0657,0.0708,0.0796,0.0855,0.09,0.1009,0.1032,0.1054,0.1041,0.0937,0.0857,0.0733,0.0595,0.0607,0.0598,0.0582,0.0415,0.0361,0.031,0.0275,0.0526,0.0526,0.0525,0,0.0524,0.0555,0.0627,0.067,0.0697,0.0773,0.0835,0.0893,0.0967,0.1099,0.1163,0.119,0.1235,0.1097,0.0887,0.0719,0.0619,0.0571,0.05,0.0416,0.0347,0.0312,0.0284,0.0499,0.0498,0.0497,0.0497,0,0.0566,0.0589,0.0636,0.0723,0.0791,0.0878,0.0968,0.1041,0.114,0.1251,0.1387,0.144,0.1319,0.1158,0.091,0.0771,0.0506,0.0552,0.0478,0.0335,0.0285,0.0242,0.0474,0.0492,0.0492,0.0493,0.0493,0.0493,0.0598,0.0639,0.0701,0.0783,0.0866,0.0973,0.1057,0.1177,0.1329,0.1519,0.1547,0.1653,0.1391,0.1061,0.087,0.0484,0.0483,0.0353,0.03,0.0278,0.0225,0.0439,0.0428,0.0428,0.0428,0.0429,0.0429,0,0.0634,0.0681,0.076,0.086,0.095,0.099,0.1145,0.1251,0.1447,0.1629,0.1766,0.1671,0.1371,0.1025,0.0495,0.0266,0.0192,0.015,0.0104,0.009,0.0299,0.0277,0.0219,0.0219,0.0219,0.0219,0.0219,0.0219,0.0658,0.0727,0.0764,0.0908,0.0984,0.1121,0.1213,0.1399,0.1551,0.1767,0.1822,0.1834,0.1526,0.0704,0.018,0.0066,-0.0062,-0.0106,-0.0154,-0.0015,0.0,0.0015,-0.0017,-0.0136,-0.0137,-0.033,-0.0332,-0.0334]}],[{"header":{"parameterUnit":"m.s-1","parameterCategory":2,"la1":30.2991,"la2":30.254,"lo1":-89.0895,"lo2":-89.0444,"dy":0.0017,"dx":0.0017,"nx":28,"ny":28,"refTime":"2024-03-29T21:00:00:Z","depth":"2","parameterNumber":2,"parameterNumberName":"U-component_of_CURRENTS"},"data":[0,0,0,0,0,0,0,0,0,0,0,0,0,0,0,0,0,0,0,0,0,0,0,0,0,0,0,0,0,0,0,0,0,0,0,0,0,0,0,0,0,0,0,0,0,0,0,0,0,0,0,0,0,0,0,0,0,0,0.2021,0.2021,0,0.2012,0.2012,0.2012,0.2013,0.2013,0.2013,0.2014,0.2023,0.2023,0.2022,0,0,0,0,0,0,0,0,0,0,0,0,0,0.2022,0.2022,0.2021,0.2021,0.2021,0.2012,0.2012,0.2012,0.2013,0.2013,0.2013,0.2014,0.2023,0.2023,0.2022,0,0,0,0,0,0,0,0,0,0,0,0,0,0.2016,0.2022,0.2021,0.2022,0.2022,0.2012,0.2012,0.2012,0.2013,0.2013,0.2014,0.2014,0.2023,0.2023,0.2022,0.2012,0,0,0.2022,0.2022,0,0,0,0,0,0,0,0,0.2016,0.2016,0.2022,0.2022,0.2022,0.2016,0.2016,0.2013,0.2012,0.2014,0.2014,0.2014,0.2023,0.2023,0.2017,0.2013,0.2013,0.2022,0.2022,0.2022,0.2022,0,0,0,0,0,0,0,0.2017,0.2016,0.2016,0.2022,0.2022,0.2017,0.2017,0.2015,0.2015,0.2014,0.2015,0.2017,0.2023,0.2017,0.2017,0.2013,0.2022,0.2022,0.2022,0.2022,0.2065,0.2066,0,0,0,0,0,0,0.2022,0.2017,0.2016,0.2016,0.2023,0.2017,0.2017,0.2016,0.2014,0.2015,0.2016,0.2017,0.2017,0.2017,0.2018,0.2071,0.2022,0.2022,0.2022,0.2063,0.2065,0.2066,0,0,0,0,0,0,0.2022,0.2022,0.2016,0.2018,0.2017,0.2017,0.2016,0.2015,0.2027,0.2016,0.2017,0.203,0.2017,0.2018,0.2034,0.2069,0.2022,0.2022,0.2062,0.2064,0.2065,0.2135,0,0,0,0,0,0,0.2022,0.2022,0.2023,0.2018,0.2017,0.2029,0.2016,0.2015,0.2027,0.2028,0.2028,0.2028,0.2018,0.2034,0.2034,0.2068,0.2022,0.206,0.2063,0.2065,0.2131,0.2139,0.2145,0,0,0,0,0,0.2022,0.2019,0.2023,0.2023,0.2019,0.2031,0.203,0.203,0.2028,0.204,0.2039,0.2029,0.2049,0.2035,0.2034,0.2069,0.2059,0.2062,0.2065,0.2128,0.2137,0.2145,0,0,0,0,0,0,0.202,0.2019,0.2023,0.2021,0.2036,0.2032,0.2035,0.204,0.2047,0.2048,0.2039,0.2039,0.207,0.2056,0.2041,0.2087,0.2055,0.2057,0.2103,0.2112,0.2119,0.211,0.2022,0,0,0,0,0,0.2021,0.2021,0.2028,0.2031,0.2036,0.2041,0.2045,0.2051,0.2055,0.2059,0.206,0.2063,0.2076,0.2083,0.2087,0.2107,0.2108,0.213,0.2137,0.2143,0.2136,0.2182,0.2194,0.2075,0.2075,0.2075,0,0,0.2022,0.2022,0.2023,0.2032,0.2037,0.2048,0.2044,0.2059,0.2075,0.2058,0.2078,0.2088,0.2087,0.2115,0.2127,0.211,0.2179,0.2147,0.2152,0.2141,0.2187,0.2198,0.2208,0.2077,0.2076,0.2076,0,0,0.2022,0.2026,0.2025,0.2042,0.2058,0.2061,0.2073,0.2083,0.2096,0.2118,0.2117,0.2149,0.2153,0.217,0.2176,0.2224,0.2217,0.2228,0.2257,0.2304,0.2314,0.2323,0.2346,0.2357,0.2231,0.2231,0.2231,0,0.2021,0.2023,0.2031,0.2042,0.2053,0.2071,0.2083,0.21,0.2119,0.2135,0.2134,0.2173,0.2182,0.2223,0.2243,0.2242,0.2255,0.2227,0.2314,0.2323,0.2331,0.2353,0.2363,0.2235,0.2234,0.2234,0.2234,0,0.2028,0.2032,0.2036,0.2052,0.207,0.2085,0.2112,0.214,0.2156,0.2172,0.2222,0.2239,0.2265,0.2283,0.2275,0.234,0.2327,0.2321,0.2294,0.2347,0.2367,0.2377,0.224,0.2239,0.2238,0.2237,0,0,0.2001,0.2031,0.2032,0.2042,0.2076,0.209,0.213,0.2164,0.2196,0.223,0.2273,0.2312,0.2331,0.2338,0.2352,0.2389,0.2468,0.2379,0.238,0.2404,0.2558,0.2482,0.2485,0.2482,0.2484,0.2486,0.2552,0,0.1998,0.2015,0.2034,0.2055,0.2063,0.2104,0.2134,0.2178,0.2221,0.2271,0.2314,0.2357,0.235,0.238,0.242,0.2456,0.2496,0.2449,0.25,0.2501,0.2429,0.2495,0.2276,0.231,0.2561,0.2563,0.2564,0,0.1983,0.1999,0.2016,0.205,0.2058,0.2083,0.2145,0.218,0.226,0.2298,0.236,0.2393,0.2463,0.2452,0.2538,0.2509,0.2537,0.2559,0.2562,0.2468,0.2442,0.2295,0.2318,0.258,0.2579,0.2578,0.2576,0,0.1946,0.1978,0.1989,0.2005,0.2052,0.2079,0.2115,0.2189,0.2229,0.233,0.2381,0.245,0.2509,0.2552,0.2604,0.2581,0.2692,0.2668,0.2622,0.2616,0.2425,0.2398,0.2731,0.2731,0.2731,0.2731,0.273,0,0.1916,0.1924,0.1977,0.1985,0.2006,0.206,0.2105,0.2159,0.225,0.2302,0.2396,0.2456,0.2541,0.2613,0.2633,0.2661,0.2724,0.2633,0.2635,0.2442,0.2418,0.264,0.2629,0.2733,0.2733,0.2732,0.2732,0,0.1861,0.1894,0.1909,0.1967,0.1983,0.2007,0.2088,0.213,0.223,0.2315,0.2353,0.2483,0.2571,0.2644,0.2728,0.2701,0.2732,0.2728,0.2485,0.2456,0.2611,0.2603,0.2668,0.2666,0.2664,0.2663,0.2661,0,0.1832,0.1834,0.1885,0.19,0.1925,0.1974,0.2004,0.2102,0.2154,0.2317,0.235,0.2484,0.2535,0.2636,0.2629,0.2651,0.2724,0.2455,0.2363,0.2613,0.2609,0.2603,0.2597,0.2142,0.2137,0.2133,0.2129,0,0.1783,0.1804,0.1822,0.185,0.1881,0.1907,0.1969,0.2,0.2122,0.2197,0.2295,0.2353,0.2458,0.2378,0.2423,0.2402,0.2427,0.2365,0.2714,0.2189,0.2122,0.2116,0.2127,0.209,0.2094,0.2097,0.2099,0.2101,0.1749,0.1749,0.1779,0.1793,0.1824,0.1834,0.1836,0.1903,0.195,0.203,0.2149,0.2172,0.2202,0.2147,0.2089,0.2058,0.2222,0.2111,0.2123,0.214,0.2064,0.1997,0.1927,0.193,0.1932,0.1935,0.1936,0,0.1702,0.1711,0.1725,0.1734,0.1726,0.1776,0.18,0.1778,0.179,0.1866,0.1918,0.178,0.1727,0.1776,0.1657,0.1646,0.1616,0.158,0.1519,0.156,0.1596,0.1489,0.1202,0.12,0.1197,0.1195,0,0,0.1684,0.1673,0.1671,0.1633,0.1643,0.1611,0.1607,0.1577,0.1591,0.1548,0.1542,0.167,0.1726,0.1454,0.1406,0.1283,0.1411,0.1229,0.182,0.1791,0.1823,0.1907,0.179,0,0,0,0,0]},{"header":{"parameterUnit":"m.s-1","parameterCategory":2,"la1":30.2991,"la2":30.254,"lo1":-89.0895,"lo2":-89.0444,"dy":0.0017,"dx":0.0017,"nx":28,"ny":28,"refTime":"2024-03-29T21:00:00:Z","depth":"2","parameterNumber":3,"parameterNumberName":"V-component_of_CURRENTS"},"data":[0,0,0,0,0,0,0,0,0,0,0,0,0,0,0,0,0,0,0,0,0,0,0,0,0,0,0,0,0,0,0,0,0,0,0,0,0,0,0,0,0,0,0,0,0,0,0,0,0,0,0,0,0,0,0,0,0,0,-0.0007,-0.0008,0,-0.0013,-0.0013,-0.0014,-0.0016,-0.0016,-0.0016,-0.0016,-0.0036,-0.0036,-0.0037,0,0,0,0,0,0,0,0,0,0,0,0,0,-0.0004,-0.0004,-0.0007,-0.0008,-0.0008,-0.0013,-0.0014,-0.0014,-0.0016,-0.0016,-0.0016,-0.0016,-0.0036,-0.0036,-0.0037,0,0,0,0,0,0,0,0,0,0,0,0,0,-0.0007,-0.0004,-0.0007,-0.001,-0.001,-0.0013,-0.0014,-0.0014,-0.0016,-0.0016,-0.0016,-0.0016,-0.0035,-0.0036,-0.0037,-0.0042,0,0,-0.0039,-0.004,0,0,0,0,0,0,0,0,-0.0007,-0.0007,-0.0009,-0.001,-0.001,-0.0014,-0.0019,-0.0024,-0.0016,-0.0014,-0.0016,-0.0016,-0.003,-0.0031,-0.0032,-0.0043,-0.0044,-0.0039,-0.004,-0.004,-0.004,0,0,0,0,0,0,0,-0.0007,-0.0007,-0.001,-0.0009,-0.001,-0.0012,-0.0013,-0.002,-0.0022,-0.0014,-0.0014,-0.0015,-0.003,-0.0031,-0.0032,-0.0044,-0.0039,-0.004,-0.0041,-0.0041,-0.0044,-0.0044,0,0,0,0,0,0,-0.0006,-0.0007,-0.001,-0.001,-0.0008,-0.0012,-0.0013,-0.0013,-0.0022,-0.0023,-0.0015,-0.0015,-0.003,-0.0032,-0.0033,-0.0018,-0.004,-0.0041,-0.0041,-0.0044,-0.0044,-0.0044,0,0,0,0,0,0,-0.0006,-0.0006,-0.0009,-0.0009,-0.0009,-0.0012,-0.0012,-0.0013,-0.0012,-0.0022,-0.0024,-0.0013,-0.003,-0.0032,-0.0031,-0.0019,-0.0041,-0.0042,-0.0045,-0.0044,-0.0044,-0.0001,0,0,0,0,0,0,-0.0006,-0.0006,-0.0005,-0.0009,-0.0009,-0.0004,-0.0012,-0.0013,-0.0012,-0.0012,-0.0021,-0.0023,-0.003,-0.003,-0.0032,-0.0021,-0.0043,-0.0045,-0.0045,-0.0044,-0.0003,0.0001,0.0004,0,0,0,0,0,-0.0005,0.0001,-0.0005,-0.0006,-0.0008,-0.0004,-0.0004,-0.0007,-0.0012,-0.0007,-0.0012,-0.0023,-0.0027,-0.003,-0.0033,-0.0021,-0.0046,-0.0045,-0.0044,-0.0004,0.0,0.0004,0,0,0,0,0,0,0.0005,0.0001,-0.0006,-0.0001,-0.0001,-0.0004,-0.0001,-0.0005,-0.0005,-0.0005,-0.0017,-0.0019,-0.0014,-0.0026,-0.0029,-0.0021,-0.0038,-0.0038,-0.0007,-0.0003,0.0,0.0013,-0.0043,0,0,0,0,0,0.0006,0.0009,0.0004,0.0008,0.0008,0.0002,0.0003,0.0002,0.0001,0.0001,-0.0005,-0.0011,-0.0013,-0.0014,-0.0019,-0.0015,-0.0027,-0.001,-0.0007,-0.0004,0.0004,-0.0001,0.0003,-0.0041,-0.0041,-0.0041,0,0,0.0012,0.001,0.0011,0.0011,0.0009,0.0018,0.0003,0.0009,0.0021,-0.0002,0.0011,0.0,-0.001,-0.0002,-0.0001,-0.0009,0.0001,-0.0002,0.0001,0.0007,0.0,0.0004,0.0008,-0.004,-0.004,-0.004,0,0,0.0031,0.0022,0.0033,0.0034,0.0034,0.0032,0.0034,0.0033,0.0035,0.0043,0.0032,0.003,0.0025,0.0024,0.0021,0.004,0.002,0.0035,0.0066,0.006,0.0064,0.0067,0.0052,0.0054,0.0038,0.0039,0.0039,0,0.0038,0.0051,0.0037,0.005,0.0057,0.004,0.0059,0.0058,0.0059,0.0068,0.0054,0.0053,0.004,0.0054,0.006,0.0049,0.0039,0.0051,0.0066,0.0068,0.0071,0.0055,0.0056,0.0041,0.004,0.004,0.004,0,0.0066,0.0077,0.0084,0.0094,0.0099,0.0113,0.011,0.0116,0.0112,0.0113,0.0123,0.0103,0.0107,0.0097,0.0084,0.0098,0.0083,0.007,0.0057,0.0078,0.006,0.006,0.0044,0.0043,0.0042,0.0042,0,0,0.0088,0.0101,0.0106,0.0122,0.0126,0.0138,0.0154,0.017,0.0192,0.0178,0.0205,0.0187,0.0174,0.017,0.015,0.014,0.0141,0.0116,0.0114,0.0105,0.0125,0.0104,0.0101,0.0133,0.0133,0.0133,0.0103,0,0.0117,0.0152,0.0151,0.0191,0.0209,0.0203,0.0225,0.0235,0.0239,0.0258,0.0234,0.0248,0.0203,0.021,0.0191,0.0159,0.0145,0.015,0.0102,0.0101,0.0083,0.0103,0.0118,0.0092,0.0103,0.0104,0.0104,0,0.0151,0.017,0.0212,0.0246,0.0255,0.0276,0.0312,0.0332,0.0345,0.035,0.0349,0.033,0.0318,0.0276,0.0224,0.023,0.0184,0.0148,0.0146,0.0113,0.0081,0.0073,0.0092,0.0104,0.0104,0.0104,0.0104,0,0.0181,0.0218,0.0255,0.0265,0.0296,0.032,0.034,0.0362,0.0396,0.0414,0.0442,0.0408,0.0412,0.0344,0.0265,0.0249,0.0205,0.0173,0.0107,0.0104,0.0102,0.0099,0.0139,0.0139,0.0139,0.0139,0.0139,0,0.0216,0.0248,0.0274,0.0295,0.0351,0.0359,0.0422,0.0436,0.0474,0.0534,0.0496,0.0532,0.0432,0.0393,0.0298,0.0209,0.023,0.0119,0.01,0.0116,0.0115,0.0112,0.0109,0.0138,0.0138,0.0138,0.0138,0,0.0245,0.026,0.0308,0.0347,0.0367,0.0409,0.0478,0.0524,0.0553,0.0631,0.0645,0.0633,0.0584,0.0473,0.0371,0.0269,0.0173,0.0136,0.0156,0.014,0.0063,0.0063,0.0053,0.0052,0.0051,0.0051,0.005,0,0.0263,0.0289,0.0347,0.0384,0.0406,0.0469,0.0519,0.0561,0.0619,0.0701,0.0745,0.0726,0.0723,0.0554,0.0383,0.0216,0.0187,0.0106,0.0072,0.0074,0.0057,0.0058,0.0058,0.0082,0.0082,0.0082,0.0082,0,0.0298,0.0317,0.0355,0.0428,0.0486,0.0559,0.0633,0.0693,0.0764,0.0835,0.0918,0.0922,0.0777,0.0618,0.0383,0.0261,0.0127,0.0095,0.011,0.01,0.0098,0.0082,0.0083,0.008,0.008,0.008,0.008,0.008,0.0325,0.0356,0.0407,0.0478,0.055,0.0644,0.0717,0.0807,0.0917,0.1031,0.1027,0.104,0.0845,0.0551,0.0349,0.0132,0.0135,0.0038,0.004,0.0042,0.0049,0.0047,0.0019,0.0019,0.0019,0.0019,0.0019,0,0.0356,0.0392,0.0456,0.0541,0.062,0.0659,0.0792,0.0876,0.1019,0.1101,0.1164,0.0985,0.0803,0.0582,0.0273,0.0074,0.0057,-0.0004,0.0024,0.0027,0.003,0.0037,0.0003,0.0003,0.0002,0.0002,0,0,0.0374,0.043,0.0459,0.0583,0.0652,0.0777,0.0862,0.0996,0.1085,0.1172,0.1179,0.114,0.0874,0.0638,0.0374,0.02,0.0155,0.0153,0.0186,0.0254,0.0259,0.0073,0.0089,0,0,0,0,0]}],[{"header":{"parameterUnit":"m.s-1","parameterCategory":2,"la1":30.2991,"la2":30.254,"lo1":-89.0895,"lo2":-89.0444,"dy":0.0017,"dx":0.0017,"nx":28,"ny":28,"refTime":"2024-03-29T21:00:00:Z","depth":"4","parameterNumber":2,"parameterNumberName":"U-component_of_CURRENTS"},"data":[0,0,0,0,0,0,0,0,0,0,0,0,0,0,0,0,0,0,0,0,0,0,0,0,0,0,0,0,0,0,0,0,0,0,0,0,0,0,0,0,0,0,0,0,0,0,0,0,0,0,0,0,0,0,0,0,0,0,0.1144,0.1145,0,0.1205,0.1206,0.1206,0.1254,0.1255,0.1256,0.1256,0.1297,0.1297,0.1297,0,0,0,0,0,0,0,0,0,0,0,0,0,0.1089,0.109,0.1144,0.1145,0.1146,0.1205,0.1206,0.1206,0.1254,0.1255,0.1256,0.1257,0.1296,0.1297,0.1297,0,0,0,0,0,0,0,0,0,0,0,0,0,0.1126,0.109,0.1144,0.1179,0.1183,0.1205,0.1206,0.1206,0.1254,0.1255,0.1256,0.1257,0.1296,0.1297,0.1297,0.128,0,0,0.1299,0.13,0,0,0,0,0,0,0,0,0.1123,0.1127,0.1173,0.1177,0.1181,0.1225,0.1201,0.1231,0.1254,0.1224,0.1256,0.1258,0.1272,0.1274,0.128,0.1282,0.1284,0.1299,0.13,0.13,0.13,0,0,0,0,0,0,0,0.1121,0.1125,0.1166,0.1174,0.1179,0.1199,0.1204,0.1207,0.1239,0.1227,0.1231,0.1242,0.1274,0.1279,0.1281,0.1284,0.1299,0.13,0.13,0.1301,0.136,0.1361,0,0,0,0,0,0,0.1116,0.1122,0.1164,0.1168,0.1157,0.1199,0.1205,0.1208,0.124,0.1246,0.1241,0.1244,0.1278,0.1281,0.1283,0.1344,0.13,0.1301,0.1301,0.1359,0.136,0.1362,0,0,0,0,0,0,0.1114,0.1119,0.1161,0.1149,0.1156,0.1199,0.1201,0.1209,0.1246,0.1251,0.1257,0.1274,0.1279,0.1282,0.1312,0.1343,0.1301,0.1301,0.1358,0.1359,0.1361,0.1415,0,0,0,0,0,0,0.1112,0.1117,0.1131,0.1148,0.1157,0.1194,0.1201,0.1209,0.125,0.1255,0.128,0.1284,0.128,0.1311,0.1312,0.1343,0.1302,0.1356,0.1358,0.136,0.1412,0.1419,0.1425,0,0,0,0,0,0.111,0.1122,0.1131,0.1138,0.117,0.1195,0.1201,0.1233,0.125,0.127,0.1289,0.1284,0.1327,0.1312,0.1314,0.1346,0.1355,0.1358,0.136,0.1409,0.1418,0.1425,0,0,0,0,0,0,0.111,0.1129,0.1139,0.1158,0.1184,0.1204,0.1229,0.1248,0.1279,0.1291,0.1295,0.1299,0.1339,0.1332,0.1316,0.137,0.1342,0.1345,0.1379,0.1386,0.1393,0.1391,0.1302,0,0,0,0,0,0.1114,0.1128,0.1149,0.1168,0.1182,0.121,0.123,0.1252,0.1275,0.1291,0.1309,0.1328,0.1345,0.1359,0.137,0.1394,0.1395,0.1417,0.1423,0.1429,0.1429,0.1464,0.1473,0.1371,0.1371,0.1371,0,0,0.112,0.1134,0.1144,0.117,0.1192,0.1213,0.1225,0.1263,0.1289,0.1288,0.1336,0.1352,0.1357,0.139,0.1407,0.1392,0.146,0.1432,0.1437,0.1434,0.1467,0.1477,0.1486,0.1373,0.1372,0.1372,0,0,0.1132,0.1152,0.1166,0.1186,0.1223,0.1238,0.1255,0.129,0.1319,0.1357,0.1368,0.1402,0.1428,0.144,0.1447,0.1492,0.1493,0.1505,0.1536,0.157,0.1579,0.1586,0.1605,0.1614,0.1507,0.1508,0.1508,0,0.1144,0.1157,0.1177,0.1195,0.1216,0.125,0.1272,0.1301,0.1346,0.137,0.1382,0.1442,0.1449,0.1487,0.1508,0.1507,0.1524,0.1507,0.1579,0.1586,0.1593,0.161,0.1619,0.1511,0.151,0.151,0.151,0,0.1156,0.1178,0.1191,0.1219,0.1245,0.1272,0.1307,0.1345,0.1385,0.1412,0.1474,0.1494,0.153,0.1544,0.1541,0.1598,0.1594,0.1584,0.1559,0.1607,0.1621,0.163,0.1515,0.1514,0.1513,0.1512,0,0,0.1148,0.119,0.1197,0.1214,0.126,0.1279,0.1328,0.1374,0.1413,0.1468,0.1518,0.1562,0.159,0.1599,0.1612,0.1642,0.1707,0.1642,0.1642,0.1659,0.1784,0.166,0.1657,0.172,0.1722,0.1723,0.1776,0,0.1154,0.1185,0.1207,0.1244,0.1262,0.1305,0.1344,0.1395,0.1446,0.1503,0.1548,0.16,0.1607,0.1639,0.1673,0.1701,0.1732,0.1694,0.1735,0.1736,0.1619,0.1663,0.1729,0.1782,0.1784,0.1785,0.1786,0,0.1152,0.1174,0.1207,0.1254,0.1268,0.1301,0.137,0.1411,0.1491,0.1534,0.16,0.1638,0.1703,0.1698,0.1777,0.1759,0.1779,0.1793,0.1795,0.1663,0.1627,0.1724,0.1801,0.18,0.1799,0.1798,0.1797,0,0.1123,0.1172,0.1198,0.1214,0.1273,0.1309,0.1353,0.1429,0.1471,0.1566,0.1611,0.1687,0.1741,0.1784,0.1827,0.1816,0.19,0.1881,0.1785,0.1777,0.1849,0.184,0.1932,0.1932,0.1932,0.1932,0.1931,0,0.1102,0.1126,0.1193,0.1205,0.1248,0.1303,0.1363,0.1417,0.15,0.1545,0.1634,0.1675,0.1771,0.1827,0.1849,0.1842,0.1922,0.1794,0.1784,0.1871,0.1864,0.1855,0.1846,0.1933,0.1933,0.1933,0.1932,0,0.1058,0.11,0.1134,0.1206,0.1234,0.1269,0.1362,0.1397,0.1494,0.1558,0.1593,0.1695,0.1764,0.1836,0.1905,0.1858,0.1867,0.1844,0.1937,0.193,0.1715,0.1708,0.1733,0.173,0.1726,0.1723,0.1721,0,0.1033,0.1048,0.1125,0.1148,0.1185,0.125,0.1286,0.1382,0.1413,0.1546,0.1556,0.1669,0.1726,0.1729,0.1805,0.1836,0.1817,0.1803,0.1749,0.1708,0.1697,0.1695,0.1692,0.1716,0.1715,0.1714,0.1713,0,0.0987,0.1027,0.1055,0.11,0.1142,0.1173,0.1235,0.1249,0.1351,0.1457,0.1488,0.1529,0.16,0.1648,0.1692,0.1706,0.1798,0.1767,0.1774,0.1724,0.1687,0.1679,0.168,0.1702,0.1703,0.1704,0.1705,0,0.0961,0.0967,0.1011,0.1037,0.1079,0.1074,0.1121,0.1154,0.1199,0.1341,0.1345,0.1468,0.1574,0.158,0.1614,0.1627,0.1599,0.1534,0.1552,0.1566,0.1487,0.1414,0.1339,0,0,0,0,0,0.093,0.0924,0.0943,0.0948,0.0978,0.0999,0.1068,0.1114,0.1217,0.1201,0.1271,0.1328,0.1383,0.1439,0.1422,0.1541,0.1606,0.1511,0.1541,0.1638,0.1651,0.1573,0,0,0,0,0,0,0.0907,0.0927,0.0916,0.0863,0.0847,0.0861,0.0901,0.0972,0.0968,0.1091,0.1132,0.1228,0.1308,0.1381,0.1389,0.1408,0.1395,0.1589,0.1585,0.163,0.1642,0.1653,0.1578,0,0,0,0,0]},{"header":{"parameterUnit":"m.s-1","parameterCategory":2,"la1":30.2991,"la2":30.254,"lo1":-89.0895,"lo2":-89.0444,"dy":0.0017,"dx":0.0017,"nx":28,"ny":28,"refTime":"2024-03-29T21:00:00:Z","depth":"4","parameterNumber":3,"parameterNumberName":"V-component_of_CURRENTS"},"data":[0,0,0,0,0,0,0,0,0,0,0,0,0,0,0,0,0,0,0,0,0,0,0,0,0,0,0,0,0,0,0,0,0,0,0,0,0,0,0,0,0,0,0,0,0,0,0,0,0,0,0,0,0,0,0,0,0,0,-0.0025,-0.0025,0,-0.0034,-0.0035,-0.0035,-0.0038,-0.0038,-0.0038,-0.0038,-0.0057,-0.0057,-0.0058,0,0,0,0,0,0,0,0,0,0,0,0,0,-0.0015,-0.0015,-0.0025,-0.0025,-0.0025,-0.0034,-0.0035,-0.0035,-0.0038,-0.0038,-0.0038,-0.0038,-0.0056,-0.0057,-0.0058,0,0,0,0,0,0,0,0,0,0,0,0,0,-0.0021,-0.0015,-0.0025,-0.0028,-0.0029,-0.0034,-0.0035,-0.0035,-0.0038,-0.0038,-0.0038,-0.0038,-0.0056,-0.0057,-0.0058,-0.0062,0,0,-0.006,-0.006,0,0,0,0,0,0,0,0,-0.002,-0.0021,-0.0028,-0.0028,-0.0029,-0.0035,-0.0038,-0.0045,-0.0038,-0.0034,-0.0038,-0.0038,-0.0051,-0.0052,-0.0053,-0.0063,-0.0064,-0.006,-0.006,-0.0061,-0.0061,0,0,0,0,0,0,0,-0.002,-0.0021,-0.0028,-0.0028,-0.0028,-0.0031,-0.0032,-0.0039,-0.0042,-0.0034,-0.0035,-0.0036,-0.0051,-0.0052,-0.0053,-0.0064,-0.006,-0.0061,-0.0061,-0.0061,-0.0071,-0.0071,0,0,0,0,0,0,-0.0019,-0.002,-0.0028,-0.0029,-0.0025,-0.0031,-0.0032,-0.0033,-0.0042,-0.0043,-0.0036,-0.0036,-0.0051,-0.0052,-0.0054,-0.0048,-0.0061,-0.0061,-0.0062,-0.0071,-0.0071,-0.0071,0,0,0,0,0,0,-0.0019,-0.002,-0.0028,-0.0025,-0.0026,-0.0031,-0.0032,-0.0033,-0.0034,-0.0043,-0.0045,-0.0037,-0.0051,-0.0053,-0.0055,-0.0049,-0.0062,-0.0063,-0.0071,-0.0071,-0.0071,-0.0044,0,0,0,0,0,0,-0.0019,-0.002,-0.002,-0.0025,-0.0026,-0.0027,-0.0032,-0.0033,-0.0036,-0.0036,-0.0044,-0.0046,-0.0051,-0.0054,-0.0056,-0.0051,-0.0063,-0.0072,-0.0071,-0.0071,-0.0045,-0.0043,-0.0041,0,0,0,0,0,-0.0018,-0.0015,-0.002,-0.0021,-0.0027,-0.0027,-0.0027,-0.0031,-0.0036,-0.0033,-0.0038,-0.0046,-0.0053,-0.0055,-0.0057,-0.0052,-0.0072,-0.0071,-0.0071,-0.0046,-0.0044,-0.0041,0,0,0,0,0,0,-0.001,-0.0016,-0.0021,-0.002,-0.0023,-0.0027,-0.0026,-0.0031,-0.0033,-0.0033,-0.0043,-0.0045,-0.0045,-0.0053,-0.0054,-0.0053,-0.0064,-0.0064,-0.0045,-0.0042,-0.004,-0.0028,-0.0064,0,0,0,0,0,-0.0009,-0.0008,-0.0015,-0.0014,-0.0016,-0.0022,-0.0024,-0.0025,-0.0029,-0.003,-0.0036,-0.0042,-0.0045,-0.0047,-0.0052,-0.0052,-0.0064,-0.0051,-0.0049,-0.0047,-0.0039,-0.0053,-0.0051,-0.0069,-0.0069,-0.0069,0,0,-0.0006,-0.0009,-0.0009,-0.0012,-0.0016,-0.001,-0.0023,-0.0022,-0.0014,-0.0032,-0.0025,-0.0035,-0.0044,-0.0041,-0.0042,-0.0047,-0.0049,-0.0046,-0.0044,-0.0037,-0.0052,-0.005,-0.0049,-0.0069,-0.0069,-0.0069,0,0,0.0006,-0.0002,0.0004,0.0004,0.0001,-0.0001,-0.0001,-0.0005,-0.0005,-0.0002,-0.0012,-0.0017,-0.0023,-0.0026,-0.0029,-0.002,-0.0038,-0.0024,-0.0002,-0.0016,-0.0015,-0.0014,-0.0032,-0.0033,-0.0022,-0.0022,-0.0022,0,0.0011,0.0019,0.0007,0.0015,0.0019,0.0004,0.0017,0.0014,0.0011,0.0015,0.0005,-0.0002,-0.0014,-0.0008,-0.0004,-0.0014,-0.0027,-0.0011,-0.0013,-0.0012,-0.0012,-0.0031,-0.0032,-0.0021,-0.0021,-0.0021,-0.0021,0,0.0029,0.0036,0.004,0.0047,0.0049,0.0057,0.0053,0.0054,0.0049,0.0048,0.0049,0.0031,0.003,0.0021,0.0012,0.0013,0.0001,-0.0009,-0.0019,-0.0008,-0.0029,-0.0031,-0.0019,-0.0019,-0.002,-0.002,0,0,0.0043,0.0052,0.0055,0.0067,0.0068,0.0076,0.0085,0.0094,0.0106,0.0092,0.0106,0.009,0.0077,0.0073,0.0054,0.004,0.0028,0.002,0.0019,0.0004,-0.0006,-0.0012,-0.0015,0.0016,0.0017,0.0017,-0.0025,0,0.0064,0.0087,0.0088,0.0116,0.0128,0.0122,0.0137,0.0142,0.014,0.0147,0.0124,0.0128,0.0098,0.0097,0.0077,0.0044,0.0026,0.004,-0.0016,-0.0018,-0.0022,-0.0016,0.0017,-0.0027,-0.0027,-0.0027,-0.0028,0,0.0086,0.01,0.0129,0.0156,0.0162,0.0177,0.02,0.0213,0.0214,0.0213,0.0204,0.0184,0.0165,0.0136,0.0081,0.0091,0.0048,0.0015,0.0012,-0.0001,-0.0026,-0.0039,-0.0031,-0.0031,-0.003,-0.003,-0.003,0,0.0106,0.0133,0.016,0.0168,0.0191,0.0208,0.0224,0.0234,0.0257,0.0256,0.0268,0.0233,0.0225,0.0166,0.0094,0.0089,0.0028,0.0011,-0.0037,-0.0038,-0.0033,-0.0034,-0.0028,-0.0028,-0.0028,-0.0028,-0.0028,0,0.0129,0.0152,0.0173,0.0188,0.023,0.0237,0.0281,0.0289,0.031,0.0346,0.0306,0.0316,0.0233,0.0186,0.0111,0.0035,0.0039,-0.0029,-0.0046,-0.0022,-0.0021,-0.0035,-0.0035,-0.0029,-0.0029,-0.0029,-0.0028,0,0.0145,0.0158,0.0192,0.0223,0.0241,0.0271,0.0324,0.0355,0.0368,0.0412,0.0416,0.0382,0.0322,0.023,0.0133,0.0067,-0.0014,-0.0045,-0.0012,-0.0028,-0.0077,-0.0076,-0.0099,-0.0099,-0.01,-0.01,-0.01,0,0.0154,0.0173,0.0219,0.0246,0.0264,0.0311,0.035,0.0382,0.042,0.0454,0.0477,0.0434,0.0397,0.0259,0.0151,0.0006,-0.0018,-0.0066,-0.0073,-0.0068,-0.0083,-0.0081,-0.0079,-0.0101,-0.0101,-0.0101,-0.0101,0,0.0171,0.0187,0.0214,0.027,0.0316,0.0374,0.043,0.0466,0.0512,0.0522,0.0535,0.0466,0.0397,0.0272,0.0159,0.0053,-0.0038,-0.0071,-0.0071,-0.0077,-0.0071,-0.0085,-0.0083,-0.0103,-0.0102,-0.0102,-0.0102,0,0.0184,0.0204,0.0242,0.0295,0.0356,0.0425,0.0453,0.0503,0.0544,0.0581,0.058,0.0503,0.0455,0.0296,0.0192,0.0087,0.0056,0.0014,0.0009,0.0009,0.0047,0.0071,0.0074,0,0,0,0,0,0.0195,0.0221,0.0266,0.0328,0.039,0.0431,0.0506,0.0531,0.0576,0.0595,0.0594,0.0529,0.0386,0.0317,0.0214,0.0169,0.0026,0.0042,-0.0027,-0.011,-0.0109,-0.0083,0,0,0,0,0,0,0.0203,0.0241,0.0264,0.0349,0.0398,0.0475,0.0528,0.0558,0.0569,0.0592,0.0516,0.0489,0.0344,0.0444,0.0206,0.0174,0.0113,-0.0025,-0.0028,-0.0111,-0.011,-0.0108,-0.0082,0,0,0,0,0]}]]